Home > Weather > Ajmer > Past weeks

Flag for India Past Weather in Ajmer, Rajasthan, India — Yesterday and Last 2 Weeks

Now
91 °F

Scattered clouds.


Feels Like: 103 °F
Forecast: 79 / 88 °F
Wind: 3 mph from North

Location: Jaipur / Sanganer

Current Time: Jul 26, 2016 at 12:11:25 PM

Latest Report: Jul 26, 2016 at 11:30 AM


Visibility: 3 mi

Pressure: 29.71 "Hg

Humidity: 59%

Dew Point: 75 °F

Location of AjmerLocation

Past Weather in Ajmer — Graph

°F

Ajmer Temperature Yesterday

Maximum temperature yesterday: 93 °F (at 12:00 PM)
Minimum temperature yesterday: 81 °F (at 4:30 AM)
Average temperature yesterday: 86 °F

High & Low Weather Summary for the Past Weeks

 TemperatureHumidityPressure
High97 °F (Jul 11, 2:00 PM)100% (Jul 15, 11:00 AM)29.71 "Hg (Jul 15, 11:00 AM)
Low75 °F (Jul 16, 2:00 PM)39% (Jul 23, 2:00 PM)29.47 "Hg (Jul 11, 2:00 PM)
Average86 °F74%29.62 "Hg
* Reported Jul 11 10:30 AM — Jul 26 10:30 AM, Ajmer, Weather by CustomWeather, © 2016

Note: Actual official high and low records may vary slightly from our data, if they occured in-between our weather recording intervals... More about our weather records

Advertising

Ajmer Weather History for the Previous 24 Hours

Scroll right to see more
 ConditionsComfort  
Time TempWeatherWind HumidityBarometerVisibility
10:30 AM
Tue, Jul 26
91 °FScattered clouds.8 mph59%29.71 "Hg3 mi
10:00 AM91 °FScattered clouds.2 mph59%29.71 "Hg3 mi
9:30 AM90 °FScattered clouds.1 mph63%29.71 "Hg3 mi
9:00 AM88 °FScattered clouds.3 mph66%N/A3 mi
8:30 AM88 °FScattered clouds.3 mph66%29.71 "Hg3 mi
8:00 AM86 °FScattered clouds.1 mph70%29.68 "Hg3 mi
7:00 AM84 °FHaze.1 mph74%29.68 "Hg3 mi
6:30 AM84 °FScattered clouds.1 mph74%29.68 "Hg3 mi
6:00 AM82 °FHaze.3 mph79%29.68 "Hg3 mi
5:30 AM82 °FPassing clouds.3 mph79%29.65 "Hg3 mi
5:00 AM82 °FPassing clouds.3 mph79%29.65 "Hg3 mi
3:00 AM82 °FPassing clouds.3 mph79%29.65 "Hg3 mi
1:00 AM84 °FPassing clouds.3 mph74%29.68 "Hg3 mi
12:30 AM84 °FPassing clouds.2 mph74%29.68 "Hg3 mi
11:30 PM
Mon, Jul 25
84 °FPassing clouds.5 mph74%29.68 "Hg3 mi
11:00 PM84 °FPartly cloudy.3 mph74%29.68 "Hg3 mi
10:30 PM84 °FPartly cloudy.5 mph74%29.68 "Hg3 mi
10:00 PM84 °FPartly cloudy.3 mph70%29.68 "Hg3 mi
9:30 PM86 °FPartly cloudy.5 mph66%29.65 "Hg3 mi
9:00 PM84 °FPartly cloudy.1 mph70%29.65 "Hg2 mi
8:30 PM86 °FPartly cloudy.1 mph66%29.65 "Hg2 mi
8:00 PM84 °FPartly cloudy.3 mph70%29.65 "Hg2 mi
7:30 PM86 °FBroken clouds.3 mph62%29.62 "Hg2 mi
7:00 PM86 °FBroken clouds.3 mph62%29.62 "Hg2 mi
6:30 PM86 °FBroken clouds.6 mph62%29.62 "Hg2 mi
6:00 PM84 °FBroken clouds.7 mph66%29.62 "Hg2 mi
5:30 PM84 °FBroken clouds.9 mph70%29.62 "Hg2 mi
4:30 PM93 °FScattered clouds.16 mph53%29.68 "Hg2 mi
4:00 PM93 °FScattered clouds.6 mph53%29.62 "Hg2 mi
3:30 PM93 °FScattered clouds.7 mph53%29.62 "Hg2 mi
3:00 PM93 °FScattered clouds.8 mph56%29.65 "Hg2 mi
2:30 PM93 °FScattered clouds.6 mph53%29.65 "Hg3 mi
1:30 PM90 °FScattered clouds.9 mph63%29.68 "Hg3 mi
1:00 PM88 °FScattered clouds.13 mph66%29.68 "Hg4 mi
12:30 PM93 °FScattered clouds.6 mph53%29.68 "Hg4 mi
12:00 PM93 °FScattered clouds.6 mph56%29.71 "Hg4 mi
Weather by CustomWeather, © 2016

See weather overviewHow to use our weather pages